Location: Alfortville
(48.8058°N, 2.4204°E)
Time: 21:52:35
(UTC+00:00)

SR - Pass Details

Date: 18 April 2026
Orbit: 568 x 852 km, 66.7° (Epoch: 19 May)

Event Time Altitude Azimuth Distance (km) Brightness Sun altitude
Rises 22:44:12 0° 320° (NW) 3,297 ? -28.4°
Reaches altitude 10° 22:46:41 10° 314° (NW) 2,399 ? -28.5°
Enters shadow 22:51:18 42° 261° (W) 1,182 ? -28.7°
